Weather in Islandia

United States     40°48′34″N   73°10′56″W
temp.,
°C
wind,
m/s
gust,
m/s
humid.,
%
clouds,
%
prec.,
mm/h
press.,
hPa
HPBL,
m
26 may, thu
thu2623:00+13sse3665100 0.0 1029380
02:00+12se2572100 0.0 1028264
05:00+12se2577100 0.0 1027247
08:00+15se3667100 0.0 1028516
11:00+17sse4659100 0.0 1027768
14:00+18sse576237 0.0 1025844
17:00+18s576987 0.0 1023671
20:00+16s388298 0.0 1021370
27 may, fri
fri2723:00+16s4118961 0.0 1020382
02:00+17ssw41292100 0.0 1018397
05:00+17s51396100 0.1 1017409
08:00+17ssw4129580 0.3 1017325
11:00+19ssw61287100 0.0 1016444
14:00+20ssw71486100 0.3 1014486
17:00+19ssw61495100 2.1 1013434
20:00+17ssw41199100 5.1 1013286
28 may, sat
sat2823:00+17s41199100 3.4 1012338
02:00+17sse51299100 7.1 1009332
05:00+16sse51399100 1.6 1008431
08:00+16ssw51198100 1.7 1008407
11:00+18ssw4689100 0.0 1007334
14:00+22ssw467023 0.1 1007775
17:00+22ssw586418 0.0 1006508
20:00+19sw377229 0.0 1008197
29 may, sun
sun2923:00+19nnw39785 0.0 1009366
02:00+18nnw4117773 0.0 1011526
05:00+16nnw497884 0.0 1013327
08:00+19nnw35635 0.0 1016356
11:00+22nnw344667 0.0 1017965
14:00+24sw344199 0.0 10161480
17:00+24ssw454576 0.0 1016833
20:00+19ssw4864100 0.0 1017245
30 may, mon
mon3023:00+18ssw387881 0.0 1018188
02:00+17sw2480100 0.0 101976
05:00+17wsw3677100 0.0 1019110
08:00+20wsw4769100 0.0 1019290
11:00+24sw475698 0.0 1019681
14:00+25ssw575477 0.0 1017783
17:00+24ssw5863100 0.0 1015315
20:00+22ssw3768100 0.0 1014142